| time (UTC) | temp F | wind direction | speed MPH | gust MPH | rain 1hr in | rain 24hr in | rain mn in | humidity % | barometer mb |
| 20260510145853 | 51 | 301 | 10.0 | 12.0 | 0.00 | 0.00 | 0.00 | 49 | 1019.9 |
| 20260510145349 | 51 | 315 | 7.0 | 12.0 | 0.00 | 0.00 | 0.00 | 49 | 1019.9 |
| 20260510144846 | 51 | 333 | 4.0 | 12.0 | 0.00 | 0.00 | 0.00 | 50 | 1019.8 |
| 20260510144343 | 50 | 333 | 6.0 | 13.0 | 0.00 | 0.00 | 0.00 | 50 | 1019.7 |
| 20260510143837 | 50 | 226 | 3.0 | 10.0 | 0.00 | 0.00 | 0.00 | 51 | 1019.9 |
| 20260510143333 | 50 | 314 | 10.0 | 13.0 | 0.00 | 0.00 | 0.00 | 50 | 1019.8 |
| 20260510142831 | 50 | 307 | 9.0 | 13.0 | 0.00 | 0.00 | 0.00 | 51 | 1019.7 |
| 20260510142327 | 50 | 280 | 7.0 | 12.0 | 0.00 | 0.00 | 0.00 | 49 | 1019.5 |
| 20260510141824 | 50 | 316 | 9.0 | 11.0 | 0.00 | 0.00 | 0.00 | 51 | 1019.7 |
| 20260510141322 | 49 | 323 | 3.0 | 8.0 | 0.00 | 0.00 | 0.00 | 53 | 1019.6 |
| 20260510140819 | 49 | 252 | 6.0 | 13.0 | 0.00 | 0.00 | 0.00 | 52 | 1019.4 |
| 20260510140314 | 50 | 268 | 5.0 | 10.0 | 0.00 | 0.00 | 0.00 | 54 | 1019.4 |
| 20260510135807 | 49 | 313 | 8.0 | 11.0 | 0.00 | 0.00 | 0.00 | 55 | 1019.4 |
| 20260510135306 | 49 | 247 | 4.0 | 14.0 | 0.00 | 0.00 | 0.00 | 55 | 1019.2 |
| 20260510134801 | 49 | 300 | 5.0 | 15.0 | 0.00 | 0.00 | 0.00 | 54 | 1019.4 |
| 20260510134258 | 49 | 225 | 8.0 | 11.0 | 0.00 | 0.00 | 0.00 | 55 | 1019.2 |
| 20260510133754 | 49 | 274 | 6.0 | 13.0 | 0.00 | 0.00 | 0.00 | 54 | 1019.4 |
| 20260510133250 | 49 | 283 | 7.0 | 15.0 | 0.00 | 0.00 | 0.00 | 54 | 1019.1 |
| 20260510132746 | 49 | 242 | 10.0 | 16.0 | 0.00 | 0.00 | 0.00 | 55 | 1019.2 |
| 20260510132244 | 49 | 246 | 11.0 | 15.0 | 0.00 | 0.00 | 0.00 | 54 | 1019.1 |
| 20260510131740 | 49 | 258 | 7.0 | 15.0 | 0.00 | 0.00 | 0.00 | 55 | 1019.2 |
| 20260510131239 | 49 | 242 | 11.0 | 18.0 | 0.00 | 0.00 | 0.00 | 54 | 1019.0 |
| 20260510130734 | 49 | 255 | 4.0 | 15.0 | 0.00 | 0.00 | 0.00 | 56 | 1019.1 |
| 20260510130232 | 48 | 325 | 9.0 | 18.0 | 0.00 | 0.00 | 0.00 | 54 | 1018.9 |
| 20260510125728 | 49 | 270 | 4.0 | 15.0 | 0.00 | 0.00 | 0.00 | 56 | 1019.0 |
| 20260510125224 | 48 | 252 | 12.0 | 16.0 | 0.00 | 0.00 | 0.00 | 56 | 1019.0 |
| 20260510124721 | 48 | 257 | 3.0 | 13.0 | 0.00 | 0.00 | 0.00 | 58 | 1018.8 |
| 20260510124219 | 48 | 267 | 7.0 | 11.0 | 0.00 | 0.00 | 0.00 | 58 | 1019.1 |
| 20260510123713 | 48 | 246 | 9.0 | 14.0 | 0.00 | 0.00 | 0.00 | 58 | 1019.2 |
| 20260510123210 | 47 | 300 | 4.0 | 15.0 | 0.00 | 0.00 | 0.00 | 59 | 1019.2 |
| 20260510122706 | 47 | 294 | 7.0 | 12.0 | 0.00 | 0.00 | 0.00 | 70 | 1019.1 |
| 20260510122203 | 46 | 262 | 6.0 | 11.0 | 0.00 | 0.00 | 0.00 | 69 | 1019.1 |
| 20260510121659 | 46 | 293 | 6.0 | 9.0 | 0.00 | 0.00 | 0.00 | 68 | 1019.0 |
| 20260510121156 | 46 | 283 | 0.0 | 9.0 | 0.00 | 0.00 | 0.00 | 68 | 1019.0 |
| 20260510120654 | 45 | 263 | 3.0 | 7.0 | 0.00 | 0.00 | 0.00 | 71 | 1018.8 |
| 20260510120150 | 44 | 245 | 6.0 | 6.0 | 0.00 | 0.00 | 0.00 | 71 | 1018.8 |
| 20260510115646 | 43 | 308 | 5.0 | 6.0 | 0.00 | 0.00 | 0.00 | 69 | 1018.8 |
| 20260510115144 | 44 | 349 | 2.0 | 3.0 | 0.00 | 0.00 | 0.00 | 68 | 1018.7 |
| 20260510114640 | 42 | 206 | 3.0 | 5.0 | 0.00 | 0.00 | 0.00 | 70 | 1018.7 |
| 20260510114136 | 42 | 187 | 2.0 | 3.0 | 0.00 | 0.00 | 0.00 | 72 | 1018.5 |
| 20260510113631 | 42 | 180 | 1.0 | 2.0 | 0.00 | 0.00 | 0.00 | 74 | 1018.5 |
| 20260510113129 | 41 | 166 | 1.0 | 2.0 | 0.00 | 0.00 | 0.00 | 74 | 1018.4 |
| 20260510112625 | 40 | 225 | 2.0 | 3.0 | 0.00 | 0.00 | 0.00 | 73 | 1018.6 |
| 20260510112122 | 40 | 203 | 1.0 | 2.0 | 0.00 | 0.00 | 0.00 | 72 | 1018.6 |
| 20260510111618 | 40 | 221 | 2.0 | 2.0 | 0.00 | 0.00 | 0.00 | 73 | 1018.4 |
| 20260510111114 | 40 | 215 | 0.0 | 2.0 | 0.00 | 0.00 | 0.00 | 72 | 1018.4 |
| 20260510110610 | 39 | 234 | 1.0 | 2.0 | 0.00 | 0.00 | 0.00 | 73 | 1018.2 |
| 20260510110107 | 38 | 214 | 0.0 | 2.0 | 0.00 | 0.00 | 0.00 | 73 | 1018.4 |
| 20260510105603 | 37 | 201 | 2.0 | 3.0 | 0.00 | 0.00 | 0.00 | 77 | 1018.2 |
| 20260510105057 | 37 | 199 | 2.0 | 3.0 | 0.00 | 0.00 | 0.00 | 74 | 1018.1 |
| 20260510104554 | 38 | 201 | 2.0 | 2.0 | 0.00 | 0.00 | 0.00 | 72 | 1018.2 |
| 20260510104051 | 38 | 206 | 1.0 | 3.0 | 0.00 | 0.00 | 0.00 | 71 | 1018.0 |
| 20260510103548 | 39 | 225 | 2.0 | 2.0 | 0.00 | 0.00 | 0.00 | 70 | 1018.0 |
| 20260510103044 | 39 | 225 | 2.0 | 2.0 | 0.00 | 0.00 | 0.00 | 71 | 1017.7 |
| 20260510102540 | 39 | 236 | 2.0 | 2.0 | 0.00 | 0.00 | 0.00 | 70 | 1017.9 |
| 20260510102036 | 39 | 236 | 2.0 | 3.0 | 0.00 | 0.00 | 0.00 | 69 | 1017.8 |
| 20260510101534 | 40 | 243 | 2.0 | 3.0 | 0.00 | 0.00 | 0.00 | 68 | 1017.7 |
| 20260510101032 | 39 | 246 | 1.0 | 2.0 | 0.00 | 0.00 | 0.00 | 66 | 1017.9 |
| 20260510100528 | 40 | 249 | 1.0 | 2.0 | 0.00 | 0.00 | 0.00 | 65 | 1017.8 |
| 20260510100025 | 40 | 255 | 2.0 | 2.0 | 0.00 | 0.00 | 0.00 | 65 | 1017.4 |
| 20260510095521 | 40 | 253 | 2.0 | 2.0 | 0.00 | 0.00 | 0.00 | 65 | 1017.5 |
| 20260510095020 | 41 | 282 | 1.0 | 3.0 | 0.00 | 0.00 | 0.00 | 64 | 1017.3 |
| 20260510094515 | 40 | 303 | 1.0 | 2.0 | 0.00 | 0.00 | 0.00 | 64 | 1017.4 |
| 20260510094011 | 39 | 270 | 0.0 | 1.0 | 0.00 | 0.00 | 0.00 | 65 | 1017.3 |
| 20260510093507 | 38 | 254 | 0.0 | 0.0 | 0.00 | 0.00 | 0.00 | 68 | 1017.4 |
| 20260510093004 | 37 | 187 | 0.0 | 0.0 | 0.00 | 0.00 | 0.00 | 71 | 1017.2 |
| 20260510092501 | 37 | 187 | 0.0 | 1.0 | 0.00 | 0.00 | 0.00 | 72 | 1017.2 |
| 20260510092000 | 36 | 180 | 0.0 | 1.0 | 0.00 | 0.00 | 0.00 | 73 | 1017.0 |
| 20260510091457 | 37 | 150 | 2.0 | 2.0 | 0.00 | 0.00 | 0.00 | 73 | 1017.0 |
| 20260510090953 | 37 | 150 | 2.0 | 2.0 | 0.00 | 0.00 | 0.00 | 73 | 1016.8 |
| 20260510090451 | 37 | 151 | 2.0 | 2.0 | 0.00 | 0.00 | 0.00 | 74 | 1016.9 |
| 20260510085946 | 37 | 187 | 0.0 | 2.0 | 0.00 | 0.00 | 0.00 | 72 | 1016.9 |
| 20260510085441 | 37 | 203 | 0.0 | 1.0 | 0.00 | 0.00 | 0.00 | 71 | 1016.9 |
| 20260510084937 | 38 | 225 | 2.0 | 2.0 | 0.00 | 0.00 | 0.00 | 68 | 1016.6 |
| 20260510084434 | 36 | 200 | 0.0 | 0.0 | 0.00 | 0.00 | 0.00 | 75 | 1016.7 |
| 20260510083931 | 36 | 270 | 0.0 | 1.0 | 0.00 | 0.00 | 0.00 | 75 | 1016.9 |
| 20260510083427 | 35 | 233 | 0.0 | 0.0 | 0.00 | 0.00 | 0.00 | 78 | 1016.6 |
| 20260510082922 | 35 | 233 | 0.0 | 0.0 | 0.00 | 0.00 | 0.00 | 76 | 1016.8 |
| 20260510082421 | 36 | 200 | 0.0 | 0.0 | 0.00 | 0.00 | 0.00 | 76 | 1016.4 |
| 20260510081919 | 36 | 200 | 0.0 | 1.0 | 0.00 | 0.00 | 0.00 | 76 | 1016.4 |
| 20260510081415 | 36 | 257 | 0.0 | 0.0 | 0.00 | 0.00 | 0.00 | 74 | 1016.2 |
| 20260510080912 | 36 | 220 | 1.0 | 2.0 | 0.00 | 0.00 | 0.00 | 74 | 1016.4 |
| 20260510080411 | 36 | 200 | 1.0 | 2.0 | 0.00 | 0.00 | 0.00 | 75 | 1016.3 |
| 20260510075908 | 36 | 215 | 1.0 | 2.0 | 0.00 | 0.00 | 0.00 | 74 | 1016.4 |
| 20260510075406 | 35 | 180 | 1.0 | 1.0 | 0.00 | 0.00 | 0.00 | 79 | 1016.4 |
| 20260510074902 | 35 | 180 | 0.0 | 0.0 | 0.00 | 0.00 | 0.00 | 78 | 1016.3 |
| 20260510074400 | 36 | 187 | 0.0 | 1.0 | 0.00 | 0.00 | 0.00 | 75 | 1016.2 |
| 20260510073856 | 36 | 198 | 2.0 | 3.0 | 0.00 | 0.00 | 0.00 | 76 | 1016.1 |
| 20260510073352 | 36 | 165 | 0.0 | 1.0 | 0.00 | 0.00 | 0.00 | 76 | 1015.9 |
| 20260510072848 | 35 | 160 | 0.0 | 0.0 | 0.00 | 0.00 | 0.00 | 77 | 1015.9 |
| 20260510072345 | 36 | 160 | 0.0 | 0.0 | 0.00 | 0.00 | 0.00 | 76 | 1016.0 |
| 20260510071841 | 36 | 106 | 0.0 | 0.0 | 0.00 | 0.00 | 0.00 | 75 | 1015.9 |
| 20260510071337 | 35 | 120 | 0.0 | 1.0 | 0.00 | 0.00 | 0.00 | 76 | 1016.0 |
| 20260510070836 | 36 | 187 | 0.0 | 0.0 | 0.00 | 0.00 | 0.00 | 76 | 1015.8 |
| 20260510070332 | 36 | 194 | 0.0 | 0.0 | 0.00 | 0.00 | 0.00 | 75 | 1015.8 |
| 20260510065827 | 36 | 243 | 0.0 | 0.0 | 0.00 | 0.00 | 0.00 | 75 | 1015.9 |
| 20260510065324 | 36 | 166 | 1.0 | 2.0 | 0.00 | 0.00 | 0.00 | 75 | 1015.7 |
| 20260510064821 | 37 | 194 | 2.0 | 3.0 | 0.00 | 0.00 | 0.00 | 73 | 1015.6 |
| 20260510064319 | 37 | 201 | 2.0 | 3.0 | 0.00 | 0.00 | 0.00 | 71 | 1015.6 |
| 20260510063815 | 37 | 180 | 1.0 | 3.0 | 0.00 | 0.00 | 0.00 | 70 | 1015.8 |
| 20260510063311 | 37 | 180 | 2.0 | 2.0 | 0.00 | 0.00 | 0.00 | 71 | 1015.7 |
| 20260510062808 | 38 | 216 | 2.0 | 4.0 | 0.00 | 0.00 | 0.00 | 71 | 1015.9 |
| 20260510062306 | 38 | 211 | 2.0 | 4.0 | 0.00 | 0.00 | 0.00 | 70 | 1015.7 |
| 20260510061759 | 38 | 197 | 3.0 | 5.0 | 0.00 | 0.00 | 0.00 | 74 | 1015.5 |
| 20260510061257 | 37 | 169 | 4.0 | 5.0 | 0.00 | 0.00 | 0.00 | 71 | 1015.7 |
| 20260510060752 | 39 | 150 | 2.0 | 3.0 | 0.00 | 0.00 | 0.00 | 68 | 1015.6 |
| 20260510060250 | 39 | 147 | 2.0 | 2.0 | 0.00 | 0.00 | 0.00 | 66 | 1015.7 |
| 20260510055746 | 40 | 129 | 2.0 | 2.0 | 0.00 | 0.00 | 0.00 | 62 | 1015.5 |
| 20260510055245 | 40 | 140 | 0.0 | 1.0 | 0.00 | 0.00 | 0.00 | 61 | 1015.4 |
| 20260510054744 | 39 | 165 | 0.0 | 0.0 | 0.00 | 0.00 | 0.00 | 61 | 1015.3 |
| 20260510054241 | 40 | 165 | 0.0 | 0.0 | 0.00 | 0.00 | 0.00 | 60 | 1015.3 |
| 20260510053740 | 40 | 165 | 0.0 | 0.0 | 0.00 | 0.00 | 0.00 | 61 | 1015.1 |
| 20260510053236 | 41 | 165 | 0.0 | 0.0 | 0.00 | 0.00 | 0.00 | 60 | 1015.2 |
| 20260510052732 | 41 | 157 | 0.0 | 1.0 | 0.00 | 0.00 | 0.00 | 59 | 1015.2 |
| 20260510052228 | 41 | 173 | 2.0 | 2.0 | 0.00 | 0.00 | 0.00 | 62 | 1015.1 |
| 20260510051724 | 41 | 197 | 2.0 | 2.0 | 0.00 | 0.00 | 0.00 | 61 | 1015.1 |
| 20260510051221 | 42 | 114 | 0.0 | 0.0 | 0.00 | 0.00 | 0.00 | 57 | 1015.0 |
| 20260510050718 | 42 | 106 | 0.0 | 1.0 | 0.00 | 0.00 | 0.00 | 54 | 1014.7 |
| 20260510050216 | 43 | 23 | 0.0 | 0.0 | 0.00 | 0.00 | 0.00 | 52 | 1014.8 |
| 20260510045712 | 44 | 23 | 0.0 | 2.0 | 0.00 | 0.00 | 0.00 | 51 | 1014.9 |
| 20260510045209 | 44 | 14 | 1.0 | 2.0 | 0.00 | 0.00 | 0.00 | 52 | 1014.7 |
| 20260510044705 | 44 | 0 | 0.0 | 1.0 | 0.00 | 0.00 | 0.00 | 52 | 1014.6 |
| 20260510044203 | 45 | 0 | 0.0 | 2.0 | 0.00 | 0.00 | 0.00 | 49 | 1014.5 |
| 20260510043658 | 46 | 19 | 4.0 | 4.0 | 0.00 | 0.00 | 0.00 | 49 | 1014.4 |
| 20260510043155 | 45 | 29 | 1.0 | 5.0 | 0.00 | 0.00 | 0.00 | 49 | 1014.4 |
| 20260510042652 | 46 | 23 | 1.0 | 3.0 | 0.00 | 0.00 | 0.00 | 48 | 1014.1 |
| 20260510042148 | 46 | 12 | 2.0 | 5.0 | 0.00 | 0.00 | 0.00 | 48 | 1014.6 |
| 20260510041646 | 46 | 5 | 1.0 | 4.0 | 0.00 | 0.00 | 0.00 | 49 | 1014.1 |
| 20260510041143 | 45 | 14 | 3.0 | 3.0 | 0.00 | 0.00 | 0.00 | 51 | 1014.0 |
| 20260510040640 | 45 | 0 | 2.0 | 3.0 | 0.00 | 0.00 | 0.00 | 53 | 1014.0 |
| 20260510040136 | 46 | 5 | 2.0 | 4.0 | 0.00 | 0.00 | 0.00 | 50 | 1014.0 |
| 20260510035632 | 46 | 0 | 2.0 | 3.0 | 0.00 | 0.00 | 0.00 | 50 | 1014.1 |
| 20260510035127 | 46 | 15 | 2.0 | 3.0 | 0.00 | 0.00 | 0.00 | 50 | 1013.8 |
| 20260510034624 | 46 | 14 | 2.0 | 4.0 | 0.00 | 0.00 | 0.00 | 50 | 1014.3 |
| 20260510034121 | 46 | 36 | 2.0 | 4.0 | 0.00 | 0.00 | 0.00 | 50 | 1014.0 |
| 20260510033618 | 46 | 356 | 2.0 | 5.0 | 0.00 | 0.00 | 0.00 | 49 | 1013.7 |
| 20260510033115 | 46 | 0 | 3.0 | 4.0 | 0.00 | 0.00 | 0.00 | 50 | 1013.6 |
| 20260510032612 | 47 | 52 | 3.0 | 4.0 | 0.00 | 0.00 | 0.00 | 49 | 1013.7 |
| 20260510032107 | 47 | 90 | 0.0 | 5.0 | 0.00 | 0.00 | 0.00 | 49 | 1013.6 |
| 20260510031602 | 48 | 26 | 0.0 | 5.0 | 0.00 | 0.00 | 0.00 | 48 | 1013.6 |
| 20260510031059 | 48 | 36 | 3.0 | 8.0 | 0.00 | 0.00 | 0.00 | 48 | 1013.7 |
| 20260510030554 | 48 | 28 | 2.0 | 6.0 | 0.00 | 0.00 | 0.00 | 47 | 1013.7 |
| 20260510030052 | 48 | 31 | 3.0 | 7.0 | 0.00 | 0.00 | 0.00 | 47 | 1013.6 |
| 20260510025548 | 48 | 43 | 3.0 | 7.0 | 0.00 | 0.00 | 0.00 | 46 | 1013.6 |
| 20260510025046 | 49 | 19 | 5.0 | 12.0 | 0.00 | 0.00 | 0.00 | 46 | 1013.4 |
| 20260510024543 | 49 | 5 | 2.0 | 9.0 | 0.00 | 0.00 | 0.00 | 46 | 1013.5 |
| 20260510024039 | 49 | 49 | 7.0 | 10.0 | 0.00 | 0.00 | 0.00 | 46 | 1013.6 |
| 20260510023535 | 50 | 338 | 4.0 | 15.0 | 0.00 | 0.00 | 0.00 | 45 | 1013.5 |
| 20260510023032 | 50 | 55 | 3.0 | 16.0 | 0.00 | 0.00 | 0.00 | 46 | 1013.2 |
| 20260510022532 | 50 | 29 | 6.0 | 12.0 | 0.00 | 0.00 | 0.00 | 46 | 1012.9 |
| 20260510022026 | 50 | 328 | 5.0 | 21.0 | 0.00 | 0.00 | 0.00 | 45 | 1012.8 |
| 20260510021523 | 50 | 11 | 16.0 | 17.0 | 0.00 | 0.00 | 0.00 | 46 | 1012.9 |
| 20260510021021 | 51 | 16 | 11.0 | 18.0 | 0.00 | 0.00 | 0.00 | 45 | 1012.6 |
| 20260510020515 | 51 | 335 | 5.0 | 14.0 | 0.00 | 0.00 | 0.00 | 45 | 1012.4 |
| 20260510020011 | 51 | 50 | 3.0 | 11.0 | 0.00 | 0.00 | 0.00 | 45 | 1012.2 |
| 20260510015506 | 52 | 1 | 5.0 | 15.0 | 0.00 | 0.00 | 0.00 | 44 | 1012.0 |
| 20260510015002 | 53 | 65 | 7.0 | 10.0 | 0.00 | 0.00 | 0.00 | 43 | 1011.8 |
| 20260510014459 | 52 | 30 | 2.0 | 5.0 | 0.00 | 0.00 | 0.00 | 43 | 1011.8 |
| 20260510013956 | 53 | 69 | 1.0 | 5.0 | 0.00 | 0.00 | 0.00 | 43 | 1011.6 |
| 20260510013450 | 53 | 26 | 0.0 | 7.0 | 0.00 | 0.00 | 0.00 | 43 | 1011.3 |
| 20260510012947 | 53 | 17 | 4.0 | 7.0 | 0.00 | 0.00 | 0.00 | 42 | 1010.8 |
| 20260510012441 | 53 | 34 | 7.0 | 8.0 | 0.00 | 0.00 | 0.00 | 42 | 1011.0 |
| 20260510011937 | 54 | 355 | 3.0 | 7.0 | 0.00 | 0.00 | 0.00 | 41 | 1010.6 |
| 20260510011432 | 54 | 346 | 4.0 | 8.0 | 0.00 | 0.00 | 0.00 | 41 | 1010.6 |
| 20260510010928 | 55 | 7 | 3.0 | 9.0 | 0.00 | 0.00 | 0.00 | 40 | 1010.3 |
| 20260510010426 | 55 | 11 | 3.0 | 7.0 | 0.00 | 0.00 | 0.00 | 39 | 1010.5 |
| 20260510005922 | 55 | 339 | 3.0 | 8.0 | 0.00 | 0.00 | 0.00 | 39 | 1010.2 |
| 20260510005418 | 56 | 6 | 1.0 | 10.0 | 0.00 | 0.00 | 0.00 | 38 | 1010.4 |
| 20260510004915 | 56 | 340 | 12.0 | 12.0 | 0.00 | 0.00 | 0.00 | 36 | 1010.0 |
| 20260510004413 | 57 | 344 | 13.0 | 13.0 | 0.00 | 0.00 | 0.00 | 35 | 1010.0 |
| 20260510003911 | 57 | 357 | 5.0 | 8.0 | 0.00 | 0.00 | 0.00 | 36 | 1009.7 |
| 20260510003408 | 57 | 355 | 7.0 | 9.0 | 0.00 | 0.00 | 0.00 | 35 | 1009.6 |
| 20260510002906 | 57 | 352 | 7.0 | 13.0 | 0.00 | 0.00 | 0.00 | 34 | 1009.5 |
| 20260510002404 | 57 | 11 | 5.0 | 8.0 | 0.00 | 0.00 | 0.00 | 35 | 1009.5 |
| 20260510001900 | 57 | 0 | 1.0 | 10.0 | 0.00 | 0.00 | 0.00 | 36 | 1009.4 |
| 20260510001358 | 58 | 349 | 4.0 | 10.0 | 0.00 | 0.00 | 0.00 | 33 | 1009.2 |
| 20260510000854 | 58 | 348 | 10.0 | 11.0 | 0.00 | 0.00 | 0.00 | 33 | 1009.3 |
| 20260510000351 | 58 | 350 | 6.0 | 13.0 | 0.00 | 0.00 | 0.00 | 32 | 1009.2 |
| 20260509235848 | 59 | 348 | 9.0 | 14.0 | 0.00 | 0.00 | 0.00 | 31 | 1009.1 |
| 20260509235344 | 59 | 353 | 8.0 | 14.0 | 0.00 | 0.00 | 0.00 | 33 | 1009.0 |
| 20260509234841 | 59 | 341 | 5.0 | 10.0 | 0.00 | 0.00 | 0.00 | 33 | 1009.0 |
| 20260509234337 | 59 | 349 | 6.0 | 13.0 | 0.00 | 0.00 | 0.00 | 32 | 1008.5 |
| 20260509233836 | 59 | 355 | 15.0 | 15.0 | 0.00 | 0.00 | 0.00 | 32 | 1008.5 |
| 20260509233333 | 59 | 320 | 10.0 | 16.0 | 0.00 | 0.00 | 0.00 | 33 | 1008.5 |
| 20260509232829 | 60 | 322 | 9.0 | 14.0 | 0.00 | 0.00 | 0.00 | 31 | 1008.3 |
| 20260509232327 | 60 | 315 | 12.0 | 20.0 | 0.00 | 0.00 | 0.00 | 32 | 1008.5 |
| 20260509231822 | 60 | 328 | 6.0 | 11.0 | 0.00 | 0.00 | 0.00 | 34 | 1008.2 |
| 20260509231319 | 60 | 351 | 9.0 | 16.0 | 0.00 | 0.00 | 0.00 | 34 | 1007.9 |
| 20260509230817 | 60 | 305 | 8.0 | 15.0 | 0.00 | 0.00 | 0.00 | 34 | 1008.1 |
| 20260509230314 | 60 | 318 | 11.0 | 16.0 | 0.00 | 0.00 | 0.00 | 33 | 1007.8 |
| 20260509225809 | 60 | 354 | 7.0 | 17.0 | 0.00 | 0.00 | 0.00 | 34 | 1007.8 |
| 20260509225306 | 59 | 325 | 11.0 | 14.0 | 0.00 | 0.00 | 0.00 | 35 | 1008.0 |
| 20260509224802 | 59 | 320 | 7.0 | 16.0 | 0.00 | 0.00 | 0.00 | 36 | 1008.0 |
| 20260509224259 | 58 | 350 | 12.0 | 15.0 | 0.00 | 0.00 | 0.00 | 37 | 1008.1 |
| 20260509223755 | 59 | 350 | 9.0 | 15.0 | 0.00 | 0.00 | 0.00 | 38 | 1007.8 |
| 20260509223253 | 59 | 332 | 9.0 | 16.0 | 0.00 | 0.00 | 0.00 | 38 | 1007.8 |
| 20260509222749 | 59 | 347 | 15.0 | 17.0 | 0.00 | 0.00 | 0.00 | 38 | 1007.6 |
| 20260509222244 | 59 | 332 | 8.0 | 17.0 | 0.00 | 0.00 | 0.00 | 37 | 1007.6 |
| 20260509221740 | 61 | 348 | 7.0 | 19.0 | 0.00 | 0.00 | 0.00 | 37 | 1007.8 |
| 20260509221237 | 60 | 333 | 13.0 | 19.0 | 0.00 | 0.00 | 0.00 | 36 | 1007.6 |
| 20260509220733 | 60 | 345 | 11.0 | 21.0 | 0.00 | 0.00 | 0.00 | 36 | 1007.5 |
| 20260509220230 | 61 | 318 | 10.0 | 18.0 | 0.00 | 0.00 | 0.00 | 39 | 1007.6 |
| 20260509215725 | 60 | 313 | 6.0 | 17.0 | 0.00 | 0.00 | 0.00 | 39 | 1007.5 |
| 20260509215222 | 59 | 342 | 10.0 | 15.0 | 0.00 | 0.00 | 0.00 | 40 | 1007.2 |
| 20260509214719 | 60 | 349 | 11.0 | 20.0 | 0.00 | 0.00 | 0.00 | 39 | 1007.3 |
| 20260509214216 | 59 | 343 | 11.0 | 17.0 | 0.00 | 0.00 | 0.00 | 39 | 1007.3 |
| 20260509213713 | 59 | 338 | 8.0 | 14.0 | 0.00 | 0.00 | 0.00 | 41 | 1007.1 |
| 20260509213208 | 59 | 343 | 7.0 | 18.0 | 0.00 | 0.00 | 0.00 | 40 | 1007.1 |
| 20260509212706 | 59 | 334 | 9.0 | 14.0 | 0.00 | 0.00 | 0.00 | 39 | 1007.1 |
| 20260509212203 | 59 | 353 | 11.0 | 18.0 | 0.00 | 0.00 | 0.00 | 38 | 1007.0 |
| 20260509211659 | 59 | 318 | 13.0 | 17.0 | 0.00 | 0.00 | 0.00 | 41 | 1006.9 |
| 20260509211155 | 59 | 329 | 14.0 | 28.0 | 0.00 | 0.00 | 0.00 | 41 | 1006.9 |
| 20260509210652 | 60 | 304 | 16.0 | 23.0 | 0.00 | 0.00 | 0.00 | 40 | 1006.8 |
| 20260509210150 | 60 | 304 | 8.0 | 16.0 | 0.00 | 0.00 | 0.00 | 42 | 1006.7 |
| 20260509205645 | 60 | 337 | 15.0 | 19.0 | 0.00 | 0.00 | 0.00 | 42 | 1006.9 |
| 20260509205144 | 59 | 353 | 15.0 | 21.0 | 0.00 | 0.00 | 0.00 | 43 | 1006.6 |
| 20260509204641 | 60 | 339 | 17.0 | 17.0 | 0.00 | 0.00 | 0.00 | 45 | 1006.5 |
| 20260509204137 | 58 | 4 | 6.0 | 15.0 | 0.00 | 0.00 | 0.00 | 44 | 1006.5 |
| 20260509203633 | 58 | 346 | 10.0 | 17.0 | 0.00 | 0.00 | 0.00 | 45 | 1006.5 |
| 20260509203131 | 58 | 324 | 12.0 | 21.0 | 0.00 | 0.00 | 0.00 | 43 | 1006.2 |
| 20260509202626 | 59 | 317 | 15.0 | 20.0 | 0.00 | 0.00 | 0.00 | 44 | 1006.2 |
| 20260509202121 | 59 | 322 | 7.0 | 20.0 | 0.00 | 0.00 | 0.00 | 41 | 1006.3 |
| 20260509201616 | 60 | 319 | 15.0 | 25.0 | 0.00 | 0.00 | 0.00 | 43 | 1006.2 |
| 20260509201114 | 60 | 292 | 20.0 | 23.0 | 0.00 | 0.00 | 0.00 | 45 | 1006.2 |
| 20260509200609 | 59 | 296 | 20.0 | 21.0 | 0.00 | 0.00 | 0.00 | 46 | 1006.2 |
| 20260509200105 | 59 | 324 | 7.0 | 19.0 | 0.00 | 0.00 | 0.00 | 49 | 1006.2 |
| 20260509195601 | 58 | 308 | 10.0 | 19.0 | 0.00 | 0.00 | 0.00 | 48 | 1006.0 |
| 20260509195056 | 58 | 338 | 11.0 | 20.0 | 0.00 | 0.00 | 0.00 | 49 | 1005.8 |
| 20260509194555 | 58 | 353 | 13.0 | 23.0 | 0.00 | 0.00 | 0.00 | 49 | 1006.2 |
| 20260509194053 | 58 | 334 | 10.0 | 22.0 | 0.00 | 0.00 | 0.00 | 49 | 1005.8 |
| 20260509193548 | 58 | 326 | 11.0 | 24.0 | 0.00 | 0.00 | 0.00 | 49 | 1005.5 |
| 20260509193045 | 60 | 348 | 11.0 | 18.0 | 0.00 | 0.00 | 0.00 | 50 | 1005.5 |
| 20260509192542 | 59 | 340 | 15.0 | 17.0 | 0.00 | 0.00 | 0.00 | 50 | 1005.8 |
| 20260509192037 | 58 | 336 | 8.0 | 16.0 | 0.00 | 0.00 | 0.00 | 52 | 1005.4 |
| 20260509191531 | 57 | 338 | 13.0 | 21.0 | 0.00 | 0.00 | 0.00 | 51 | 1005.6 |
| 20260509191027 | 57 | 314 | 14.0 | 23.0 | 0.00 | 0.00 | 0.00 | 53 | 1005.8 |
| 20260509190524 | 58 | 300 | 6.0 | 21.0 | 0.00 | 0.00 | 0.00 | 53 | 1005.6 |
| 20260509190022 | 58 | 305 | 15.0 | 21.0 | 0.00 | 0.00 | 0.00 | 53 | 1005.5 |
| 20260509185520 | 58 | 312 | 11.0 | 21.0 | 0.00 | 0.00 | 0.00 | 55 | 1005.5 |
| 20260509185016 | 58 | 304 | 10.0 | 18.0 | 0.00 | 0.00 | 0.00 | 56 | 1005.4 |
| 20260509184514 | 57 | 322 | 8.0 | 20.0 | 0.00 | 0.00 | 0.00 | 57 | 1005.3 |
| 20260509184010 | 58 | 317 | 8.0 | 17.0 | 0.00 | 0.00 | 0.00 | 59 | 1005.2 |
| 20260509183505 | 58 | 301 | 15.0 | 19.0 | 0.00 | 0.00 | 0.00 | 58 | 1005.2 |
| 20260509183001 | 58 | 333 | 13.0 | 22.0 | 0.00 | 0.00 | 0.00 | 57 | 1005.2 |
| 20260509182458 | 58 | 301 | 23.0 | 28.0 | 0.00 | 0.00 | 0.00 | 54 | 1005.2 |
| 20260509181955 | 58 | 318 | 12.0 | 21.0 | 0.00 | 0.00 | 0.00 | 58 | 1005.1 |
| 20260509181453 | 57 | 305 | 16.0 | 23.0 | 0.00 | 0.00 | 0.00 | 59 | 1004.9 |
| 20260509180950 | 57 | 268 | 6.0 | 24.0 | 0.00 | 0.00 | 0.00 | 58 | 1005.0 |
| 20260509180446 | 58 | 304 | 18.0 | 26.0 | 0.00 | 0.00 | 0.00 | 58 | 1004.9 |
| 20260509175943 | 56 | 305 | 15.0 | 27.0 | 0.00 | 0.00 | 0.00 | 60 | 1004.8 |
| 20260509175439 | 57 | 319 | 14.0 | 22.0 | 0.00 | 0.00 | 0.00 | 62 | 1004.9 |
| 20260509174936 | 58 | 312 | 17.0 | 23.0 | 0.00 | 0.00 | 0.00 | 63 | 1004.9 |
| 20260509174432 | 57 | 303 | 19.0 | 29.0 | 0.00 | 0.00 | 0.00 | 59 | 1005.0 |
| 20260509173927 | 57 | 324 | 13.0 | 19.0 | 0.00 | 0.00 | 0.00 | 61 | 1004.9 |
| 20260509173427 | 55 | 317 | 19.0 | 21.0 | 0.00 | 0.00 | 0.00 | 62 | 1005.0 |
| 20260509172924 | 55 | 315 | 17.0 | 22.0 | 0.00 | 0.00 | 0.00 | 62 | 1004.9 |
| 20260509172421 | 54 | 345 | 15.0 | 24.0 | 0.00 | 0.00 | 0.00 | 63 | 1004.7 |
| 20260509171916 | 55 | 312 | 16.0 | 22.0 | 0.00 | 0.00 | 0.00 | 63 | 1004.7 |
| 20260509171413 | 54 | 312 | 17.0 | 25.0 | 0.00 | 0.00 | 0.00 | 62 | 1004.9 |
| 20260509170909 | 54 | 325 | 9.0 | 19.0 | 0.00 | 0.00 | 0.00 | 61 | 1004.9 |
| 20260509170405 | 55 | 329 | 14.0 | 18.0 | 0.00 | 0.00 | 0.00 | 60 | 1004.7 |
| 20260509165901 | 56 | 321 | 9.0 | 19.0 | 0.00 | 0.00 | 0.00 | 59 | 1004.6 |
| 20260509165355 | 56 | 318 | 15.0 | 25.0 | 0.00 | 0.00 | 0.00 | 56 | 1004.5 |
| 20260509164851 | 57 | 322 | 15.0 | 19.0 | 0.00 | 0.00 | 0.00 | 56 | 1004.3 |
| 20260509164347 | 56 | 330 | 13.0 | 21.0 | 0.00 | 0.00 | 0.00 | 55 | 1004.3 |
| 20260509163843 | 56 | 310 | 17.0 | 23.0 | 0.00 | 0.00 | 0.00 | 54 | 1004.6 |
| 20260509163340 | 56 | 323 | 8.0 | 22.0 | 0.00 | 0.00 | 0.00 | 54 | 1004.4 |
| 20260509162839 | 56 | 294 | 16.0 | 17.0 | 0.00 | 0.00 | 0.00 | 55 | 1004.5 |
| 20260509162338 | 55 | 312 | 9.0 | 12.0 | 0.00 | 0.00 | 0.00 | 57 | 1004.2 |
| 20260509161835 | 55 | 344 | 11.0 | 14.0 | 0.00 | 0.00 | 0.00 | 55 | 1004.3 |
| 20260509161331 | 55 | 328 | 10.0 | 14.0 | 0.00 | 0.00 | 0.00 | 54 | 1004.3 |
| 20260509160827 | 55 | 306 | 6.0 | 9.0 | 0.00 | 0.00 | 0.00 | 56 | 1004.4 |
| 20260509160323 | 54 | 332 | 11.0 | 15.0 | 0.00 | 0.00 | 0.00 | 55 | 1004.4 |
| 20260509155818 | 54 | 340 | 13.0 | 13.0 | 0.00 | 0.00 | 0.00 | 56 | 1004.2 |
| 20260509155315 | 54 | 315 | 11.0 | 16.0 | 0.00 | 0.00 | 0.00 | 54 | 1004.2 |
| 20260509154811 | 54 | 327 | 6.0 | 10.0 | 0.00 | 0.00 | 0.00 | 55 | 1004.2 |
| 20260509154308 | 54 | 339 | 7.0 | 15.0 | 0.00 | 0.00 | 0.00 | 54 | 1004.2 |
| 20260509153805 | 53 | 316 | 9.0 | 14.0 | 0.00 | 0.00 | 0.00 | 55 | 1004.2 |
| 20260509153301 | 54 | 335 | 9.0 | 10.0 | 0.00 | 0.00 | 0.00 | 56 | 1004.4 |
| 20260509152758 | 54 | 310 | 7.0 | 10.0 | 0.00 | 0.00 | 0.00 | 53 | 1004.1 |
| 20260509152254 | 54 | 308 | 9.0 | 9.0 | 0.00 | 0.00 | 0.00 | 53 | 1004.4 |
| 20260509151751 | 54 | 340 | 7.0 | 14.0 | 0.00 | 0.00 | 0.00 | 54 | 1004.2 |
| 20260509151247 | 54 | 337 | 9.0 | 15.0 | 0.00 | 0.00 | 0.00 | 52 | 1004.1 |
| 20260509150746 | 54 | 323 | 6.0 | 12.0 | 0.00 | 0.00 | 0.00 | 53 | 1003.9 |
| 20260509150244 | 54 | 330 | 7.0 | 13.0 | 0.00 | 0.00 | 0.00 | 52 | 1004.1 |